Year,Month,Day,Hour,Minute,Value (Times are PST for temperature in C)
2009,08,22,00,00,15.70
2009,08,22,00,01,15.70
2009,08,22,00,02,15.70
2009,08,22,00,03,15.60
2009,08,22,00,04,15.60
2009,08,22,00,05,15.60
2009,08,22,00,06,15.50
2009,08,22,00,07,15.40
2009,08,22,00,08,15.40
2009,08,22,00,09,15.30
2009,08,22,00,10,15.30
2009,08,22,00,11,15.20
2009,08,22,00,12,15.10
2009,08,22,00,13,15.10
2009,08,22,00,14,15.00
2009,08,22,00,15,15.00
2009,08,22,00,16,15.00
2009,08,22,00,17,15.00
2009,08,22,00,18,15.00
2009,08,22,00,19,15.00
2009,08,22,00,20,15.00
2009,08,22,00,21,15.00
2009,08,22,00,22,14.90
2009,08,22,00,23,14.80
2009,08,22,00,24,14.80
2009,08,22,00,25,14.70
2009,08,22,00,26,14.70
2009,08,22,00,27,14.70
2009,08,22,00,28,14.60
2009,08,22,00,29,14.60
2009,08,22,00,30,14.60
2009,08,22,00,31,14.50
2009,08,22,00,32,14.50
2009,08,22,00,33,14.50
2009,08,22,00,34,14.40
2009,08,22,00,35,14.40
2009,08,22,00,36,14.40
2009,08,22,00,37,14.40
2009,08,22,00,38,14.30
2009,08,22,00,39,14.30
2009,08,22,00,40,14.30
2009,08,22,00,41,14.30
2009,08,22,00,42,14.30
2009,08,22,00,43,14.20
2009,08,22,00,44,14.20
2009,08,22,00,45,14.20
2009,08,22,00,46,14.20
2009,08,22,00,47,14.20
2009,08,22,00,48,14.20
2009,08,22,00,49,14.10
2009,08,22,00,50,14.10
2009,08,22,00,51,14.10
2009,08,22,00,52,14.10
2009,08,22,00,53,14.10
2009,08,22,00,54,14.10
2009,08,22,00,55,14.10
2009,08,22,00,56,14.10
2009,08,22,00,57,14.10
2009,08,22,00,58,14.00
2009,08,22,00,59,14.00
2009,08,22,01,00,13.90
2009,08,22,01,01,13.90
2009,08,22,01,02,13.90
2009,08,22,01,03,13.80
2009,08,22,01,04,13.70
2009,08,22,01,05,13.70
2009,08,22,01,06,13.70
2009,08,22,01,07,13.60
2009,08,22,01,08,13.60
2009,08,22,01,09,13.60
2009,08,22,01,10,13.50
2009,08,22,01,11,13.50
2009,08,22,01,12,13.50
2009,08,22,01,13,13.50
2009,08,22,01,14,13.60
2009,08,22,01,15,13.60
2009,08,22,01,16,13.60
2009,08,22,01,17,13.70
2009,08,22,01,18,13.70
2009,08,22,01,19,13.70
2009,08,22,01,20,13.70
2009,08,22,01,21,13.70
2009,08,22,01,22,13.70
2009,08,22,01,23,13.70
2009,08,22,01,24,13.70
2009,08,22,01,25,13.70
2009,08,22,01,26,13.70
2009,08,22,01,27,13.70
2009,08,22,01,28,13.70
2009,08,22,01,29,13.70
2009,08,22,01,30,13.70
2009,08,22,01,31,13.60
2009,08,22,01,32,13.60
2009,08,22,01,33,13.60
2009,08,22,01,34,13.60
2009,08,22,01,35,13.50
2009,08,22,01,36,13.40
2009,08,22,01,37,13.40
2009,08,22,01,38,13.40
2009,08,22,01,39,13.30
2009,08,22,01,40,13.30
2009,08,22,01,41,13.30
2009,08,22,01,42,13.30
2009,08,22,01,43,13.30
2009,08,22,01,44,13.40
2009,08,22,01,45,13.50
2009,08,22,01,46,13.60
2009,08,22,01,47,13.70
2009,08,22,01,48,13.70
2009,08,22,01,49,13.80
2009,08,22,01,50,13.90
2009,08,22,01,51,13.90
2009,08,22,01,52,13.90
2009,08,22,01,53,14.00
2009,08,22,01,54,14.00
2009,08,22,01,55,14.00
2009,08,22,01,56,14.00
2009,08,22,01,57,14.10
2009,08,22,01,58,14.10
2009,08,22,01,59,14.10
2009,08,22,02,00,14.10
2009,08,22,02,01,14.10
2009,08,22,02,02,14.10
2009,08,22,02,03,14.10
2009,08,22,02,04,14.10
2009,08,22,02,05,14.10
2009,08,22,02,06,14.10
2009,08,22,02,07,14.20
2009,08,22,02,08,14.20
2009,08,22,02,09,14.20
2009,08,22,02,10,14.20
2009,08,22,02,11,14.20
2009,08,22,02,12,14.10
2009,08,22,02,13,14.10
2009,08,22,02,14,14.10
2009,08,22,02,15,14.00
2009,08,22,02,16,13.90
2009,08,22,02,17,13.80
2009,08,22,02,18,13.70
2009,08,22,02,19,13.70
2009,08,22,02,20,13.60
2009,08,22,02,21,13.60
2009,08,22,02,22,13.50
2009,08,22,02,23,13.50
2009,08,22,02,24,13.40
2009,08,22,02,25,13.40
2009,08,22,02,26,13.40
2009,08,22,02,27,13.40
2009,08,22,02,28,13.30
2009,08,22,02,29,13.30
2009,08,22,02,30,13.20
2009,08,22,02,31,13.20
2009,08,22,02,32,13.20
2009,08,22,02,33,13.20
2009,08,22,02,34,13.20
2009,08,22,02,35,13.20
2009,08,22,02,36,13.20
2009,08,22,02,37,13.30
2009,08,22,02,38,13.30
2009,08,22,02,39,13.30
2009,08,22,02,40,13.30
2009,08,22,02,41,13.20
2009,08,22,02,42,13.20
2009,08,22,02,43,13.20
2009,08,22,02,44,13.10
2009,08,22,02,45,13.10
2009,08,22,02,46,13.10
2009,08,22,02,47,13.10
2009,08,22,02,48,13.20
2009,08,22,02,49,13.20
2009,08,22,02,50,13.20
2009,08,22,02,51,13.20
2009,08,22,02,52,13.20
2009,08,22,02,53,13.20
2009,08,22,02,54,13.20
2009,08,22,02,55,13.20
2009,08,22,02,56,13.10
2009,08,22,02,57,13.10
2009,08,22,02,58,13.10
2009,08,22,02,59,13.10
2009,08,22,03,00,13.10
2009,08,22,03,01,13.10
2009,08,22,03,02,13.10
2009,08,22,03,03,13.10
2009,08,22,03,04,13.10
2009,08,22,03,05,13.10
2009,08,22,03,06,13.10
2009,08,22,03,07,13.10
2009,08,22,03,08,13.10
2009,08,22,03,09,13.10
2009,08,22,03,10,13.00
2009,08,22,03,11,13.00
2009,08,22,03,12,12.90
2009,08,22,03,13,12.80
2009,08,22,03,14,12.80
2009,08,22,03,15,12.70
2009,08,22,03,16,12.70
2009,08,22,03,17,12.60
2009,08,22,03,18,12.60
2009,08,22,03,19,12.60
2009,08,22,03,20,12.60
2009,08,22,03,21,12.60
2009,08,22,03,22,12.60
2009,08,22,03,23,12.60
2009,08,22,03,24,12.60
2009,08,22,03,25,12.60
2009,08,22,03,26,12.60
2009,08,22,03,27,12.60
2009,08,22,03,28,12.60
2009,08,22,03,29,12.60
2009,08,22,03,30,12.60
2009,08,22,03,31,12.60
2009,08,22,03,32,12.60
2009,08,22,03,33,12.60
2009,08,22,03,34,12.60
2009,08,22,03,35,12.60
2009,08,22,03,36,12.60
2009,08,22,03,37,12.60
2009,08,22,03,38,12.60
2009,08,22,03,39,12.50
2009,08,22,03,40,12.50
2009,08,22,03,41,12.40
2009,08,22,03,42,12.40
2009,08,22,03,43,12.40
2009,08,22,03,44,12.40
2009,08,22,03,45,12.30
2009,08,22,03,46,12.30
2009,08,22,03,47,12.20
2009,08,22,03,48,12.20
2009,08,22,03,49,12.20
2009,08,22,03,50,12.20
2009,08,22,03,51,12.10
2009,08,22,03,52,12.10
2009,08,22,03,53,12.10
2009,08,22,03,54,12.10
2009,08,22,03,55,12.10
2009,08,22,03,56,12.10
2009,08,22,03,57,12.10
2009,08,22,03,58,12.10
2009,08,22,03,59,12.20
2009,08,22,04,00,12.20
2009,08,22,04,01,12.20
2009,08,22,04,02,12.10
2009,08,22,04,03,12.10
2009,08,22,04,05,12.00
2009,08,22,04,09,11.80
2009,08,22,04,12,11.80
2009,08,22,04,13,11.80
2009,08,22,04,16,11.80
2009,08,22,04,18,11.90
2009,08,22,04,19,11.90
2009,08,22,04,21,11.90
2009,08,22,04,24,11.80
2009,08,22,04,26,11.80
2009,08,22,04,27,11.80
2009,08,22,04,28,11.80
2009,08,22,04,29,11.80
2009,08,22,04,30,11.80
2009,08,22,04,31,11.80
2009,08,22,04,32,11.80
2009,08,22,04,33,11.80
2009,08,22,04,34,11.80
2009,08,22,04,35,11.80
2009,08,22,04,36,11.80
2009,08,22,04,37,11.80
2009,08,22,04,38,11.80
2009,08,22,04,39,11.80
2009,08,22,04,40,11.80
2009,08,22,04,41,11.90
2009,08,22,04,43,12.00
2009,08,22,04,44,12.00
2009,08,22,04,45,12.10
2009,08,22,04,46,12.10
2009,08,22,04,48,12.10
2009,08,22,04,49,12.10
2009,08,22,04,50,12.10
2009,08,22,04,51,12.10
2009,08,22,04,52,12.10
2009,08,22,04,53,12.10
2009,08,22,04,54,12.10
2009,08,22,04,55,12.10
2009,08,22,04,56,12.10
2009,08,22,04,57,12.00
2009,08,22,04,58,12.00
2009,08,22,04,59,12.00
2009,08,22,05,00,12.00
2009,08,22,05,01,11.90
2009,08,22,05,02,11.90
2009,08,22,05,03,11.90
2009,08,22,05,04,11.90
2009,08,22,05,05,11.90
2009,08,22,05,06,11.90
2009,08,22,05,07,11.80
2009,08,22,05,09,11.80
2009,08,22,05,10,11.80
2009,08,22,05,12,11.80
2009,08,22,05,13,11.80
2009,08,22,05,14,11.70
2009,08,22,05,15,11.70
2009,08,22,05,16,11.70
2009,08,22,05,17,11.70
2009,08,22,05,18,11.70
2009,08,22,05,19,11.70
2009,08,22,05,20,11.60
2009,08,22,05,21,11.60
2009,08,22,05,22,11.60
2009,08,22,05,23,11.60
2009,08,22,05,24,11.60
2009,08,22,05,25,11.50
2009,08,22,05,26,11.50
2009,08,22,05,27,11.40
2009,08,22,05,28,11.40
2009,08,22,05,29,11.40
2009,08,22,05,30,11.40
2009,08,22,05,31,11.30
2009,08,22,05,32,11.30
2009,08,22,05,33,11.30
2009,08,22,05,34,11.20
2009,08,22,05,35,11.20
2009,08,22,05,36,11.20
2009,08,22,05,37,11.20
2009,08,22,05,38,11.20
2009,08,22,05,39,11.20
2009,08,22,05,40,11.20
2009,08,22,05,41,11.20
2009,08,22,05,42,11.10
2009,08,22,05,43,11.20
2009,08,22,05,44,11.20
2009,08,22,05,45,11.20
2009,08,22,05,46,11.20
2009,08,22,05,47,11.20
2009,08,22,05,48,11.20
2009,08,22,05,49,11.20
2009,08,22,05,50,11.20
2009,08,22,05,51,11.20
2009,08,22,05,52,11.30
2009,08,22,05,53,11.30
2009,08,22,05,54,11.30
2009,08,22,05,55,11.30
2009,08,22,05,56,11.30
2009,08,22,05,57,11.30
2009,08,22,05,58,11.30
2009,08,22,05,59,11.40
2009,08,22,06,00,11.40
2009,08,22,06,01,11.40
2009,08,22,06,02,11.40
2009,08,22,06,03,11.40
2009,08,22,06,04,11.50
2009,08,22,06,05,11.50
2009,08,22,06,06,11.50
2009,08,22,06,07,11.50
2009,08,22,06,08,11.50
2009,08,22,06,09,11.50
2009,08,22,06,10,11.50
2009,08,22,06,11,11.50
2009,08,22,06,12,11.50
2009,08,22,06,13,11.60
2009,08,22,06,14,11.60
2009,08,22,06,15,11.60
2009,08,22,06,16,11.60
2009,08,22,06,17,11.60
2009,08,22,06,18,11.60
2009,08,22,06,19,11.80
2009,08,22,06,20,11.90
2009,08,22,06,21,12.00
2009,08,22,06,22,12.10
2009,08,22,06,23,12.30
2009,08,22,06,24,12.40
2009,08,22,06,25,12.60
2009,08,22,06,26,12.80
2009,08,22,06,27,12.90
2009,08,22,06,28,13.10
2009,08,22,06,29,13.20
2009,08,22,06,30,13.40
2009,08,22,06,31,13.40
2009,08,22,06,32,13.50
2009,08,22,06,33,13.60
2009,08,22,06,34,13.70
2009,08,22,06,35,13.70
2009,08,22,06,36,13.80
2009,08,22,06,37,13.80
2009,08,22,06,38,13.90
2009,08,22,06,39,13.90
2009,08,22,06,40,13.90
2009,08,22,06,41,14.00
2009,08,22,06,42,14.00
2009,08,22,06,43,14.00
2009,08,22,06,44,13.90
2009,08,22,06,45,13.90
2009,08,22,06,46,13.90
2009,08,22,06,47,13.90
2009,08,22,06,48,13.80
2009,08,22,06,49,13.80
2009,08,22,06,50,13.80
2009,08,22,06,51,13.70
2009,08,22,06,52,13.70
2009,08,22,06,53,13.70
2009,08,22,06,54,13.70
2009,08,22,06,55,13.60
2009,08,22,06,56,13.60
2009,08,22,06,57,13.60
2009,08,22,06,58,13.60
2009,08,22,06,59,13.60
2009,08,22,07,00,13.50
2009,08,22,07,01,13.60
2009,08,22,07,02,13.60
2009,08,22,07,03,13.60
2009,08,22,07,04,13.60
2009,08,22,07,05,13.70
2009,08,22,07,06,13.80
2009,08,22,07,07,13.80
2009,08,22,07,08,13.90
2009,08,22,07,09,14.00
2009,08,22,07,10,14.00
2009,08,22,07,11,14.10
2009,08,22,07,12,14.20
2009,08,22,07,13,14.20
2009,08,22,07,14,14.20
2009,08,22,07,15,14.30
2009,08,22,07,16,14.30
2009,08,22,07,17,14.30
2009,08,22,07,18,14.40
2009,08,22,07,19,14.40
2009,08,22,07,20,14.40
2009,08,22,07,21,14.50
2009,08,22,07,22,14.50
2009,08,22,07,23,14.60
2009,08,22,07,24,14.60
2009,08,22,07,25,14.60
2009,08,22,07,26,14.60
2009,08,22,07,27,14.60
2009,08,22,07,28,14.60
2009,08,22,07,29,14.60
2009,08,22,07,30,14.60
2009,08,22,07,31,14.70
2009,08,22,07,32,14.70
2009,08,22,07,33,14.70
2009,08,22,07,34,14.70
2009,08,22,07,35,14.70
2009,08,22,07,36,14.70
2009,08,22,07,37,14.80
2009,08,22,07,38,14.80
2009,08,22,07,39,14.80
2009,08,22,07,40,14.80
2009,08,22,07,41,14.80
2009,08,22,07,42,14.90
2009,08,22,07,43,14.90
2009,08,22,07,44,14.90
2009,08,22,07,45,15.00
2009,08,22,07,46,15.00
2009,08,22,07,47,15.00
2009,08,22,07,48,15.00
2009,08,22,07,49,15.00
2009,08,22,07,50,15.00
2009,08,22,07,51,15.00
2009,08,22,07,52,15.00
2009,08,22,07,53,15.00
2009,08,22,07,54,15.10
2009,08,22,07,55,15.10
2009,08,22,07,56,15.20
2009,08,22,07,57,15.20
2009,08,22,07,58,15.30
2009,08,22,07,59,15.30
2009,08,22,08,00,15.30
2009,08,22,08,01,15.40
2009,08,22,08,02,15.40
2009,08,22,08,03,15.40
2009,08,22,08,04,15.50
2009,08,22,08,05,15.50
2009,08,22,08,06,15.50
2009,08,22,08,07,15.50
2009,08,22,08,08,15.60
2009,08,22,08,09,15.60
2009,08,22,08,10,15.60
2009,08,22,08,11,15.60
2009,08,22,08,12,15.70
2009,08,22,08,13,15.70
2009,08,22,08,14,15.70
2009,08,22,08,15,15.80
2009,08,22,08,16,15.80
2009,08,22,08,17,15.80
2009,08,22,08,18,15.90
2009,08,22,08,19,15.90
2009,08,22,08,20,15.90
2009,08,22,08,21,15.90
2009,08,22,08,22,15.80
2009,08,22,08,23,15.80
2009,08,22,08,24,15.80
2009,08,22,08,25,15.80
2009,08,22,08,26,15.70
2009,08,22,08,27,15.70
2009,08,22,08,28,15.70
2009,08,22,08,29,15.70
2009,08,22,08,30,15.70
2009,08,22,08,31,15.70
2009,08,22,08,32,15.70
2009,08,22,08,33,15.70
2009,08,22,08,34,15.60
2009,08,22,08,35,15.60
2009,08,22,08,36,15.70
2009,08,22,08,37,15.70
2009,08,22,08,38,15.70
2009,08,22,08,39,15.70
2009,08,22,08,40,15.70
2009,08,22,08,41,15.70
2009,08,22,08,42,15.70
2009,08,22,08,43,15.70
2009,08,22,08,44,15.70
2009,08,22,08,45,15.70
2009,08,22,08,46,15.70
2009,08,22,08,47,15.70
2009,08,22,08,48,15.80
2009,08,22,08,49,15.80
2009,08,22,08,50,15.80
2009,08,22,08,51,15.80
2009,08,22,08,52,15.80
2009,08,22,08,53,15.80
2009,08,22,08,54,15.80
2009,08,22,08,55,15.80
2009,08,22,08,56,15.70
2009,08,22,08,57,15.70
2009,08,22,08,58,15.70
2009,08,22,08,59,15.70
2009,08,22,09,00,15.70
2009,08,22,09,01,15.70
2009,08,22,09,02,15.70
2009,08,22,09,03,15.70
2009,08,22,09,04,15.70
2009,08,22,09,05,15.70
2009,08,22,11,38,17.60
2009,08,22,11,39,17.50
2009,08,22,11,40,17.50
2009,08,22,11,41,17.40
2009,08,22,11,42,17.40
2009,08,22,11,43,17.40
2009,08,22,11,44,17.40
2009,08,22,11,45,17.50
2009,08,22,11,46,17.60
2009,08,22,11,47,17.60
2009,08,22,11,48,17.70
2009,08,22,11,49,17.70
2009,08,22,11,50,17.80
2009,08,22,11,51,17.90
2009,08,22,11,52,18.00
2009,08,22,11,53,18.00
2009,08,22,11,54,18.00
2009,08,22,11,55,18.00
2009,08,22,11,56,18.00
2009,08,22,11,57,17.90
2009,08,22,11,58,17.90
2009,08,22,11,59,17.80
2009,08,22,12,00,17.80
2009,08,22,12,01,17.80
2009,08,22,12,02,17.90
2009,08,22,12,03,18.00
2009,08,22,12,04,18.10
2009,08,22,12,05,18.10
2009,08,22,12,06,18.20
2009,08,22,12,07,18.30
2009,08,22,12,08,18.30
2009,08,22,12,09,18.30
2009,08,22,12,10,18.30
2009,08,22,12,11,18.30
2009,08,22,12,12,18.40
2009,08,22,12,13,18.40
2009,08,22,12,14,18.40
2009,08,22,12,15,18.50
2009,08,22,12,16,18.40
2009,08,22,12,17,18.40
2009,08,22,12,18,18.40
2009,08,22,12,19,18.40
2009,08,22,12,20,18.40
2009,08,22,12,21,18.40
2009,08,22,12,22,18.40
2009,08,22,12,23,18.50
2009,08,22,12,24,18.50
2009,08,22,12,25,18.60
2009,08,22,12,26,18.60
2009,08,22,12,27,18.70
2009,08,22,12,28,18.80
2009,08,22,12,29,19.00
2009,08,22,12,30,19.10
2009,08,22,12,31,19.00
2009,08,22,12,32,19.00
2009,08,22,12,33,19.10
2009,08,22,12,34,19.10
2009,08,22,12,35,19.10
2009,08,22,12,36,19.00
2009,08,22,12,37,18.90
2009,08,22,12,38,18.90
2009,08,22,12,39,18.70
2009,08,22,12,40,18.60
2009,08,22,12,41,18.40
2009,08,22,12,42,18.40
2009,08,22,12,43,18.50
2009,08,22,12,44,18.50
2009,08,22,12,45,18.60
2009,08,22,12,46,18.60
2009,08,22,12,47,18.60
2009,08,22,12,48,18.70
2009,08,22,12,49,18.60
2009,08,22,12,50,18.50
2009,08,22,12,51,18.40
2009,08,22,12,52,18.40
2009,08,22,12,53,18.30
2009,08,22,12,54,18.20
2009,08,22,12,55,18.20
2009,08,22,12,56,18.20
2009,08,22,12,57,18.20
2009,08,22,12,58,18.10
2009,08,22,12,59,18.00
2009,08,22,13,00,18.00
2009,08,22,13,01,18.00
2009,08,22,13,02,18.10
2009,08,22,13,03,18.10
2009,08,22,13,04,18.20
2009,08,22,13,05,18.20
2009,08,22,13,06,18.20
2009,08,22,13,07,18.20
2009,08,22,13,08,18.30
2009,08,22,13,09,18.30
2009,08,22,13,10,18.30
2009,08,22,13,11,18.30
2009,08,22,13,12,18.30
2009,08,22,13,13,18.30
2009,08,22,13,14,18.30
2009,08,22,13,15,18.20
2009,08,22,13,16,18.30
2009,08,22,13,17,18.20
2009,08,22,13,18,18.20
2009,08,22,13,19,18.20
2009,08,22,13,20,18.20
2009,08,22,13,21,18.30
2009,08,22,13,22,18.30
2009,08,22,13,23,18.40
2009,08,22,13,24,18.50
2009,08,22,13,25,18.50
2009,08,22,13,26,18.70
2009,08,22,13,27,18.80
2009,08,22,13,28,18.80
2009,08,22,13,29,18.70
2009,08,22,13,30,18.70
2009,08,22,13,31,18.60
2009,08,22,13,32,18.50
2009,08,22,13,33,18.50
2009,08,22,13,34,18.50
2009,08,22,13,35,18.50
2009,08,22,13,36,18.50
2009,08,22,13,37,18.50
2009,08,22,13,38,18.40
2009,08,22,13,39,18.30
2009,08,22,13,40,18.20
2009,08,22,13,41,18.20
2009,08,22,13,42,18.20
2009,08,22,13,43,18.20
2009,08,22,13,44,18.20
2009,08,22,13,45,18.20
2009,08,22,13,46,18.10
2009,08,22,13,47,18.00
2009,08,22,13,48,18.00
2009,08,22,13,49,17.90
2009,08,22,13,50,18.00
2009,08,22,13,51,18.20
2009,08,22,13,52,18.30
2009,08,22,13,53,18.50
2009,08,22,13,54,18.60
2009,08,22,13,55,18.70
2009,08,22,13,56,18.80
2009,08,22,13,57,18.80
2009,08,22,13,58,18.80
2009,08,22,13,59,18.70
2009,08,22,14,00,18.70
2009,08,22,14,01,18.70
2009,08,22,14,02,18.90
2009,08,22,14,03,19.00
2009,08,22,14,04,19.10
2009,08,22,14,05,19.20
2009,08,22,14,06,19.30
2009,08,22,14,07,19.30
2009,08,22,14,08,19.30
2009,08,22,14,09,19.30
2009,08,22,14,10,19.40
2009,08,22,14,11,19.40
2009,08,22,14,12,19.40
2009,08,22,14,13,19.40
2009,08,22,14,14,19.30
2009,08,22,14,15,19.20
2009,08,22,14,16,19.10
2009,08,22,14,17,19.00
2009,08,22,14,18,18.90
2009,08,22,14,19,18.80
2009,08,22,14,20,18.80
2009,08,22,14,21,18.80
2009,08,22,14,22,18.90
2009,08,22,14,23,19.10
2009,08,22,14,24,19.20
2009,08,22,14,25,19.40
2009,08,22,14,26,19.50
2009,08,22,14,27,19.60
2009,08,22,14,28,19.50
2009,08,22,14,29,19.40
2009,08,22,14,30,19.40
2009,08,22,14,31,19.30
2009,08,22,14,32,19.20
2009,08,22,14,33,19.10
2009,08,22,14,34,19.10
2009,08,22,14,35,19.00
2009,08,22,14,36,18.80
2009,08,22,14,37,18.70
2009,08,22,14,38,18.60
2009,08,22,14,39,18.70
2009,08,22,14,40,18.70
2009,08,22,14,41,18.70
2009,08,22,14,42,18.70
2009,08,22,14,43,18.50
2009,08,22,14,44,18.50
2009,08,22,14,45,18.40
2009,08,22,14,46,18.30
2009,08,22,14,47,18.30
2009,08,22,14,48,18.10
2009,08,22,14,49,18.00
2009,08,22,14,50,17.90
2009,08,22,14,51,17.70
2009,08,22,14,52,17.50
2009,08,22,14,53,17.40
2009,08,22,14,54,17.40
2009,08,22,14,55,17.40
2009,08,22,14,56,17.40
2009,08,22,14,57,17.40
2009,08,22,14,58,17.40
2009,08,22,14,59,17.40
2009,08,22,15,00,17.50
2009,08,22,15,01,17.60
2009,08,22,15,02,17.70
2009,08,22,15,03,17.80
2009,08,22,15,04,18.00
2009,08,22,15,05,18.20
2009,08,22,15,06,18.40
2009,08,22,15,07,18.50
2009,08,22,15,08,18.70
2009,08,22,15,09,18.90
2009,08,22,15,10,18.90
2009,08,22,15,11,18.80
2009,08,22,15,12,18.60
2009,08,22,15,13,18.40
2009,08,22,15,14,18.30
2009,08,22,15,15,18.20
2009,08,22,15,16,18.10
2009,08,22,15,17,18.10
2009,08,22,15,18,18.10
2009,08,22,15,19,18.10
2009,08,22,15,20,18.10
2009,08,22,15,21,18.10
2009,08,22,15,22,18.10
2009,08,22,15,23,18.10
2009,08,22,15,24,18.20
2009,08,22,15,25,18.20
2009,08,22,15,26,18.20
2009,08,22,15,27,18.20
2009,08,22,15,28,18.20
2009,08,22,15,29,18.20
2009,08,22,15,30,18.20
2009,08,22,15,31,18.30
2009,08,22,15,32,18.40
2009,08,22,15,33,18.40
2009,08,22,15,34,18.50
2009,08,22,15,35,18.60
2009,08,22,15,36,18.70
2009,08,22,15,37,18.80
2009,08,22,15,38,18.80
2009,08,22,15,39,18.80
2009,08,22,15,40,18.80
2009,08,22,15,41,18.80
2009,08,22,15,42,18.70
2009,08,22,15,43,18.70
2009,08,22,15,44,18.70
2009,08,22,15,45,18.60
2009,08,22,15,46,18.60
2009,08,22,15,47,18.60
2009,08,22,15,48,18.70
2009,08,22,15,49,18.70
2009,08,22,15,50,18.80
2009,08,22,15,51,18.80
2009,08,22,15,52,18.90
2009,08,22,15,53,18.90
2009,08,22,15,54,19.00
2009,08,22,15,55,19.00
2009,08,22,15,56,19.00
2009,08,22,15,57,19.00
2009,08,22,15,58,19.00
2009,08,22,15,59,19.10
2009,08,22,16,00,19.20
2009,08,22,16,01,19.30
2009,08,22,16,02,19.50
2009,08,22,16,03,19.60
2009,08,22,16,04,19.70
2009,08,22,16,05,19.80
2009,08,22,16,06,19.80
2009,08,22,16,07,19.80
2009,08,22,16,08,19.80
2009,08,22,16,09,19.80
2009,08,22,16,10,19.80
2009,08,22,16,11,19.90
2009,08,22,16,12,19.90
2009,08,22,16,13,19.90
2009,08,22,16,14,19.90
2009,08,22,16,15,20.00
2009,08,22,16,16,19.90
2009,08,22,16,17,19.80
2009,08,22,16,18,19.80
2009,08,22,16,19,19.80
2009,08,22,16,20,19.80
2009,08,22,16,21,19.80
2009,08,22,16,22,19.80
2009,08,22,16,23,19.60
2009,08,22,16,24,19.50
2009,08,22,16,25,19.50
2009,08,22,16,26,19.40
2009,08,22,16,27,19.40
2009,08,22,16,28,19.20
2009,08,22,16,29,19.10
2009,08,22,16,30,18.90
2009,08,22,16,31,18.90
2009,08,22,16,32,18.90
2009,08,22,16,33,18.90
2009,08,22,16,34,18.90
2009,08,22,16,35,18.90
2009,08,22,16,36,18.90
2009,08,22,16,37,18.90
2009,08,22,16,38,19.00
2009,08,22,16,39,19.00
2009,08,22,16,40,18.90
2009,08,22,16,41,18.90
2009,08,22,16,42,18.90
2009,08,22,16,43,18.80
2009,08,22,16,44,18.80
2009,08,22,16,45,18.80
2009,08,22,16,46,18.80
2009,08,22,16,47,18.90
2009,08,22,16,48,18.90
2009,08,22,16,49,18.90
2009,08,22,16,50,18.90
2009,08,22,16,51,18.90
2009,08,22,16,52,18.90
2009,08,22,16,53,19.00
2009,08,22,16,54,19.10
2009,08,22,16,55,19.10
2009,08,22,16,56,19.20
2009,08,22,16,57,19.20
2009,08,22,16,58,19.20
2009,08,22,16,59,19.30
2009,08,22,17,00,19.20
2009,08,22,17,01,19.20
2009,08,22,17,02,19.20
2009,08,22,17,03,19.20
2009,08,22,17,04,19.20
2009,08,22,17,05,19.30
2009,08,22,17,06,19.40
2009,08,22,17,07,19.40
2009,08,22,17,08,19.50
2009,08,22,17,09,19.40
2009,08,22,17,10,19.40
2009,08,22,17,11,19.30
2009,08,22,17,12,19.30
2009,08,22,17,13,19.30
2009,08,22,17,14,19.20
2009,08,22,17,15,19.10
2009,08,22,17,16,19.10
2009,08,22,17,17,19.10
2009,08,22,17,18,19.20
2009,08,22,17,19,19.20
2009,08,22,17,20,19.20
2009,08,22,17,21,19.20
2009,08,22,17,22,19.20
2009,08,22,17,23,19.30
2009,08,22,17,24,19.30
2009,08,22,17,25,19.20
2009,08,22,17,26,19.20
2009,08,22,17,27,19.20
2009,08,22,17,28,19.20
2009,08,22,17,29,19.30
2009,08,22,17,30,19.40
2009,08,22,17,31,19.40
2009,08,22,17,32,19.40
2009,08,22,17,33,19.50
2009,08,22,17,34,19.60
2009,08,22,17,35,19.60
2009,08,22,17,36,19.60
2009,08,22,17,37,19.60
2009,08,22,17,38,19.60
2009,08,22,17,39,19.60
2009,08,22,17,40,19.60
2009,08,22,17,41,19.50
2009,08,22,17,42,19.50
2009,08,22,17,43,19.50
2009,08,22,17,44,19.40
2009,08,22,17,45,19.30
2009,08,22,17,46,19.20
2009,08,22,17,47,19.20
2009,08,22,17,48,19.20
2009,08,22,17,49,19.20
2009,08,22,17,50,19.20
2009,08,22,17,51,19.20
2009,08,22,17,52,19.10
2009,08,22,17,53,19.00
2009,08,22,17,54,18.90
2009,08,22,17,55,18.90
2009,08,22,17,56,18.80
2009,08,22,17,57,18.80
2009,08,22,17,58,18.80
2009,08,22,17,59,18.80
2009,08,22,18,00,18.70
2009,08,22,18,01,18.70
2009,08,22,18,02,18.70
2009,08,22,18,03,18.60
2009,08,22,18,04,18.60
2009,08,22,18,05,18.50
2009,08,22,18,06,18.50
2009,08,22,18,07,18.50
2009,08,22,18,08,18.50
2009,08,22,18,09,18.50
2009,08,22,18,10,18.60
2009,08,22,18,11,18.70
2009,08,22,18,12,18.80
2009,08,22,18,13,18.80
2009,08,22,18,14,18.80
2009,08,22,18,15,18.90
2009,08,22,18,16,18.90
2009,08,22,18,17,18.90
2009,08,22,18,18,18.90
2009,08,22,18,19,18.90
2009,08,22,18,20,18.90
2009,08,22,18,21,19.00
2009,08,22,18,22,19.00
2009,08,22,18,23,19.00
2009,08,22,18,24,19.10
2009,08,22,18,25,19.10
2009,08,22,18,26,19.10
2009,08,22,18,27,19.10
2009,08,22,18,28,19.10
2009,08,22,18,29,19.10
2009,08,22,18,30,19.10
2009,08,22,18,31,19.10
2009,08,22,18,32,19.10
2009,08,22,18,33,19.10
2009,08,22,18,34,19.10
2009,08,22,18,35,19.10
2009,08,22,18,36,19.10
2009,08,22,18,37,19.10
2009,08,22,18,38,19.00
2009,08,22,18,39,19.00
2009,08,22,18,40,18.90
2009,08,22,18,41,18.90
2009,08,22,18,42,18.80
2009,08,22,18,43,18.70
2009,08,22,18,44,18.60
2009,08,22,18,45,18.40
2009,08,22,18,46,18.30
2009,08,22,18,47,18.20
2009,08,22,18,48,18.10
2009,08,22,18,49,18.00
2009,08,22,18,50,17.90
2009,08,22,18,51,17.80
2009,08,22,18,52,17.80
2009,08,22,18,53,17.70
2009,08,22,18,54,17.60
2009,08,22,18,55,17.60
2009,08,22,18,56,17.50
2009,08,22,18,57,17.50
2009,08,22,18,58,17.50
2009,08,22,18,59,17.50
2009,08,22,19,00,17.50
2009,08,22,19,01,17.40
2009,08,22,19,02,17.40
2009,08,22,19,03,17.40
2009,08,22,19,04,17.40
2009,08,22,19,05,17.40
2009,08,22,19,06,17.40
2009,08,22,19,07,17.40
2009,08,22,19,08,17.40
2009,08,22,19,09,17.40
2009,08,22,19,10,17.40
2009,08,22,19,11,17.40
2009,08,22,19,12,17.40
2009,08,22,19,13,17.30
2009,08,22,19,14,17.30
2009,08,22,19,15,17.30
2009,08,22,19,16,17.20
2009,08,22,19,17,17.10
2009,08,22,19,18,17.10
2009,08,22,19,19,17.10
2009,08,22,19,20,17.10
2009,08,22,19,21,17.10
2009,08,22,19,22,17.10
2009,08,22,19,23,17.00
2009,08,22,19,24,17.00
2009,08,22,19,25,17.00
2009,08,22,19,26,16.90
2009,08,22,19,27,16.90
2009,08,22,19,28,16.80
2009,08,22,19,29,16.80
2009,08,22,19,30,16.80
2009,08,22,19,31,16.80
2009,08,22,19,32,16.80
2009,08,22,19,33,16.80
2009,08,22,19,34,16.80
2009,08,22,19,35,16.80
2009,08,22,19,36,16.80
2009,08,22,19,37,16.70
2009,08,22,19,38,16.70
2009,08,22,19,39,16.70
2009,08,22,19,40,16.70
2009,08,22,19,41,16.60
2009,08,22,19,42,16.60
2009,08,22,19,43,16.60
2009,08,22,19,44,16.60
2009,08,22,19,45,16.60
2009,08,22,19,46,16.60
2009,08,22,19,47,16.60
2009,08,22,19,48,16.60
2009,08,22,19,49,16.60
2009,08,22,19,50,16.50
2009,08,22,19,51,16.40
2009,08,22,19,52,16.40
2009,08,22,19,53,16.40
2009,08,22,19,54,16.30
2009,08,22,19,55,16.30
2009,08,22,19,56,16.30
2009,08,22,19,57,16.30
2009,08,22,19,58,16.20
2009,08,22,19,59,16.20
2009,08,22,20,00,16.20
2009,08,22,20,01,16.20
2009,08,22,20,02,16.10
2009,08,22,20,03,16.10
2009,08,22,20,04,16.10
2009,08,22,20,05,16.10
2009,08,22,20,06,16.10
2009,08,22,20,07,16.00
2009,08,22,20,08,16.00